GW0876 Weather Reports


Display with metric or nautical units.
time (UTC)temp
F
wind
direction
speed
MPH
gust
MPH
rain 1hr
in
rain 24hr
in
rain mn
in
humidity
%
barometer
mb
20260508022734 53 37 0.0 2.0 0.01 0.32 0.07 96 1014.4
20260508021734 53 260 0.0 2.0 0.02 0.32 0.07 96 1014.6
20260508020735 53 269 1.0 2.0 0.02 0.32 0.07 96 1014.6
20260508015734 53 284 2.0 3.0 0.02 0.30 0.07 96 1014.8
20260508014734 53 235 0.0 1.0 0.02 0.30 0.07 96 1014.6
20260508013735 53 63 0.0 2.0 0.02 0.30 0.06 96 1014.8
20260508012734 53 249 0.0 3.0 0.02 0.30 0.06 96 1014.9
20260508011734 53 304 0.0 4.0 0.01 0.30 0.04 96 1014.9
20260508011141 53 294 1.0 2.0 0.03 0.27 0.04 95 1014.4
20260508010914 53 105 1.0 3.0 0.02 0.30 0.04 96 1014.7
20260508004734 53 336 0.0 1.0 0.03 0.27 0.04 95 1014.2
20260508003736 53 62 0.0 2.0 0.03 0.27 0.04 95 1014.1
20260508002735 53 263 2.0 3.0 0.03 0.27 0.04 95 1014.1
20260508001735 53 272 2.0 3.0 0.02 0.27 0.03 95 1014.4
20260508000739 53 319 0.0 3.0 0.01 0.27 0.02 95 1014.3
20260507235736 53 306 0.0 3.0 0.00 0.26 0.02 95 1014.4
20260507235215 53 93 0.0 2.0 0.01 0.26 0.02 95 1014.4
20260507233736 53 291 0.0 2.0 0.01 0.26 0.01 95 1014.6
20260507232735 53 44 0.0 2.0 0.01 0.26 0.01 95 1014.6
20260507231734 53 89 0.0 1.0 0.01 0.26 0.01 95 1014.7
20260507230735 53 283 1.0 2.0 0.01 0.26 0.01 95 1014.7
20260507230216 53 199 0.0 2.0 0.02 0.25 0.01 95 1014.9
20260507224734 53 66 0.0 2.0 0.02 0.25 0.01 95 1014.9
20260507224212 53 315 2.0 2.0 0.03 0.25 0.00 95 1014.9
20260507222733 53 37 0.0 1.0 0.03 0.25 0.00 94 1014.8
20260507221746 53 20 0.0 3.0 0.04 0.25 0.00 94 1014.9
20260507220734 53 291 3.0 3.0 0.05 0.25 0.00 94 1014.7
20260507215733 53 121 0.0 2.0 0.06 0.20 0.25 94 1014.9
20260507214733 53 256 0.0 2.0 0.05 0.20 0.24 94 1014.7
20260507214216 53 66 0.0 2.0 0.05 0.20 0.23 94 1014.8
20260507212733 53 281 0.0 2.0 0.06 0.20 0.22 94 1014.8
20260507211734 54 269 0.0 3.0 0.05 0.20 0.21 93 1015.0
20260507210735 54 134 0.0 3.0 0.05 0.20 0.20 93 1014.7
20260507210211 54 355 0.0 3.0 0.04 0.15 0.19 93 1014.6
20260507205207 54 230 0.0 2.0 0.04 0.15 0.19 93 1014.4
20260507204236 54 117 0.0 2.0 0.03 0.15 0.18 92 1014.6
20260507202733 54 112 1.0 3.0 0.02 0.15 0.17 91 1014.7
20260507201733 54 340 0.0 3.0 0.02 0.15 0.16 91 1014.6
20260507200735 54 69 2.0 3.0 0.01 0.15 0.16 90 1014.4
20260507195733 54 109 0.0 4.0 0.00 0.15 0.15 90 1014.2
20260507195207 55 102 1.0 3.0 0.00 0.15 0.15 89 1014.2
20260507193735 55 28 1.0 4.0 0.00 0.15 0.15 90 1013.8
20260507192733 55 263 0.0 4.0 0.01 0.15 0.15 90 1014.0
20260507191732 55 88 1.0 4.0 0.01 0.15 0.15 89 1013.9
20260507190735 55 59 1.0 5.0 0.01 0.15 0.15 88 1014.0
20260507185733 56 98 1.0 6.0 0.01 0.13 0.15 91 1013.8
20260507184733 58 285 2.0 5.0 0.01 0.13 0.14 92 1013.7
20260507183735 58 255 0.0 2.0 0.01 0.13 0.14 92 1013.2
20260507183214 58 310 0.0 1.0 0.01 0.13 0.14 93 1013.2
20260507182217 58 299 0.0 1.0 0.01 0.13 0.13 92 1012.9
20260507180747 58 315 0.0 2.0 0.01 0.13 0.13 92 1012.7
20260507175733 58 343 0.0 2.0 0.02 0.12 0.13 91 1012.5
20260507174734 58 115 2.0 4.0 0.02 0.12 0.13 92 1012.6
20260507173735 58 104 1.0 2.0 0.04 0.12 0.13 92 1012.5
20260507172733 59 147 0.0 2.0 0.05 0.12 0.13 92 1012.5
20260507171733 59 153 0.0 1.0 0.04 0.12 0.13 92 1012.4
20260507170734 58 117 0.0 3.0 0.05 0.12 0.12 90 1012.1
20260507170142 58 296 2.0 6.0 0.11 0.06 0.11 90 1012.1
20260507165915 58 77 0.0 3.0 0.09 0.06 0.12 89 1012.1
20260507163735 58 271 3.0 6.0 0.09 0.06 0.09 90 1012.1
20260507162733 58 319 0.0 2.0 0.08 0.07 0.08 89 1012.1
20260507161733 58 147 0.0 2.0 0.08 0.08 0.08 89 1012.1
20260507160734 58 297 0.0 3.0 0.07 0.08 0.07 87 1012.1
20260507155733 59 36 3.0 5.0 0.03 0.02 0.02 83 1012.4
20260507154733 62 234 2.0 6.0 0.00 0.02 0.00 74 1012.2
20260507153735 65 261 5.0 6.0 0.00 0.02 0.00 72 1012.2
20260507152733 66 291 1.0 5.0 0.00 0.02 0.00 73 1011.6
20260507151733 67 283 3.0 4.0 0.00 0.02 0.00 70 1011.6
20260507150734 68 308 1.0 4.0 0.00 0.02 0.00 64 1011.5
20260507150218 69 0 1.0 3.0 0.00 0.02 0.00 62 1011.4
20260507144733 69 21 0.0 4.0 0.00 0.02 0.00 61 1011.4
20260507143734 69 347 0.0 4.0 0.00 0.02 0.00 61 1011.1
20260507142733 69 46 2.0 5.0 0.00 0.02 0.00 60 1011.2
20260507141733 69 293 2.0 5.0 0.00 0.02 0.00 59 1011.2
20260507141606 70 287 3.0 6.0 0.00 0.02 0.00 58 1011.4
20260507140915 70 278 1.0 4.0 0.00 0.02 0.00 58 1011.1
20260507134733 70 308 3.0 4.0 0.00 0.02 0.00 57 1011.2
20260507133734 70 284 2.0 7.0 0.00 0.02 0.00 56 1011.2
20260507132732 70 289 3.0 5.0 0.00 0.02 0.00 57 1010.8
20260507131733 70 7 1.0 5.0 0.00 0.02 0.00 58 1011.0
20260507130735 70 67 1.0 4.0 0.00 0.02 0.00 59 1011.2
20260507125733 70 237 1.0 5.0 0.00 0.02 0.00 58 1011.1
20260507124733 71 23 2.0 4.0 0.00 0.02 0.00 57 1011.1
20260507124652 70 287 2.0 4.0 0.00 0.02 0.00 57 1011.0
20260507122746 71 206 2.0 4.0 0.00 0.02 0.00 56 1011.1
20260507121733 71 265 1.0 5.0 0.00 0.02 0.00 54 1011.0
20260507120735 71 291 1.0 5.0 0.00 0.02 0.00 54 1011.1
20260507115737 71 281 4.0 6.0 0.00 0.02 0.00 53 1011.2
20260507114733 71 302 2.0 5.0 0.00 0.02 0.00 53 1011.0
20260507113734 71 269 1.0 6.0 0.00 0.02 0.00 53 1011.2
20260507113701 71 287 3.0 7.0 0.00 0.02 0.00 53 1011.2
20260507111735 71 274 2.0 7.0 0.00 0.02 0.00 53 1011.1
20260507110734 72 89 0.0 4.0 0.00 0.02 0.00 51 1010.9
20260507110705 73 359 1.0 5.0 0.00 0.02 0.00 51 1010.8
20260507104733 72 317 3.0 7.0 0.00 0.02 0.00 52 1010.9
20260507104214 72 294 2.0 6.0 0.00 0.02 0.00 52 1010.9
20260507103701 72 265 1.0 7.0 0.00 0.02 0.00 52 1011.0
20260507101733 72 279 3.0 8.0 0.00 0.02 0.00 52 1010.6
20260507100734 72 64 2.0 9.0 0.00 0.02 0.00 51 1010.8
20260507095734 72 295 2.0 9.0 0.00 0.02 0.00 52 1010.6
20260507094733 71 275 3.0 9.0 0.00 0.02 0.00 51 1010.5
20260507093735 72 330 5.0 10.0 0.00 0.02 0.00 52 1010.4
20260507092733 72 282 5.0 10.0 0.00 0.02 0.00 52 1010.6
20260507091746 72 319 2.0 9.0 0.00 0.02 0.00 53 1010.3
20260507091212 71 294 4.0 9.0 0.00 0.02 0.00 53 1010.1
20260507085733 71 309 2.0 9.0 0.00 0.02 0.00 53 1010.3
20260507084734 70 291 7.0 9.0 0.00 0.02 0.00 53 1010.1
20260507083734 71 288 5.0 12.0 0.00 0.02 0.00 52 1010.2
20260507082733 71 277 10.0 13.0 0.00 0.02 0.00 51 1010.0
20260507082645 70 283 3.0 10.0 0.00 0.02 0.00 53 1009.8
20260507080734 70 282 6.0 9.0 0.00 0.02 0.00 54 1009.7
20260507080208 70 249 4.0 6.0 0.00 0.02 0.00 55 1009.7
20260507074733 70 303 3.0 8.0 0.00 0.02 0.00 54 1009.8
20260507073734 69 281 5.0 7.0 0.00 0.02 0.00 58 1009.7
20260507073705 69 265 2.0 6.0 0.00 0.02 0.00 57 1009.5
20260507071733 68 146 0.0 6.0 0.00 0.02 0.00 59 1009.4
20260507070735 67 55 2.0 5.0 0.00 0.02 0.00 60 1009.4
20260507065746 67 295 2.0 4.0 0.00 0.02 0.00 62 1009.5
20260507064734 65 22 2.0 3.0 0.00 0.02 0.00 62 1009.2
20260507064224 63 95 0.0 3.0 0.00 0.02 0.00 66 1009.4
20260507062733 63 191 1.0 2.0 0.00 0.02 0.00 65 1009.3
20260507062212 63 24 0.0 2.0 0.00 0.02 0.00 65 1009.2
20260507060734 62 180 0.0 4.0 0.00 0.02 0.00 66 1009.1
20260507055733 62 273 2.0 3.0 0.00 0.02 0.00 67 1008.9
20260507054734 61 346 2.0 4.0 0.00 0.02 0.00 68 1008.7
20260507054648 61 3 2.0 4.0 0.00 0.02 0.00 68 1008.6
20260507052733 62 330 2.0 3.0 0.00 0.02 0.00 67 1008.6
20260507051734 61 36 0.0 3.0 0.00 0.02 0.00 67 1008.6
20260507051221 61 77 1.0 3.0 0.00 0.02 0.00 68 1008.7
20260507050217 61 44 0.0 2.0 0.00 0.02 0.00 68 1008.6
20260507044733 61 287 1.0 3.0 0.00 0.02 0.00 67 1008.5
20260507043734 61 349 0.0 4.0 0.00 0.02 0.00 67 1008.3
20260507042732 60 327 2.0 4.0 0.00 0.02 0.00 68 1008.4
20260507041734 60 274 0.0 4.0 0.00 0.02 0.00 68 1008.4
20260507040735 60 309 2.0 4.0 0.00 0.02 0.00 68 1008.4
20260507035733 60 337 1.0 3.0 0.00 0.02 0.00 68 1008.2
20260507034733 60 308 0.0 2.0 0.00 0.02 0.00 67 1008.0
20260507033748 60 73 0.0 2.0 0.00 0.02 0.00 67 1008.2
20260507032733 60 226 0.0 3.0 0.00 0.02 0.00 66 1008.3
20260507031733 60 351 0.0 4.0 0.00 0.02 0.00 65 1008.1
20260507030734 60 22 2.0 3.0 0.00 0.02 0.00 66 1008.1
20260507025733 60 27 2.0 4.0 0.00 0.02 0.00 67 1008.1
20260507024733 59 22 1.0 2.0 0.00 0.02 0.00 70 1007.9
20260507023735 58 145 1.0 3.0 0.00 0.02 0.00 71 1008.1